PUA253 SBPA-SUMU

Flight info

Callsign PUA253
Flight time N/A
Altitude 40000
Route DEVOT UN857 MIMOL UM792 TELAK
Aircraft A359/H-SDE2E3GHIJ3J4J5LM1ORWXY/LB1D1

Departure

Time 2026-05-08 13:54
Airport Porto Alegre-Salgado Filho International Airport (SBPA)

Arrival

Time N/A
Airport Carrasco General Cesáreo L. Berisso International Airport (SUMU)
Time Latitude Longitude Altitude Speed Heading
2026-05-08 13:42 -29.99168 -51.17938 20 ft 0 kts 206°
2026-05-08 13:47 -29.99167 -51.17938 20 ft 0 kts 206°
2026-05-08 13:48 -29.99267 -51.17918 23 ft 11 kts 128°
2026-05-08 13:49 -29.99270 -51.17795 22 ft 41 kts 79°
2026-05-08 13:49 -29.99256 -51.17603 23 ft 19 kts 94°
2026-05-08 13:49 -29.99255 -51.17448 23 ft 20 kts 90°
2026-05-08 13:49 -29.99265 -51.17271 21 ft 24 kts 93°
2026-05-08 13:50 -29.99269 -51.17064 20 ft 27 kts 91°
2026-05-08 13:50 -29.99272 -51.16830 24 ft 31 kts 91°
2026-05-08 13:50 -29.99278 -51.16572 21 ft 33 kts 91°
2026-05-08 13:50 -29.99283 -51.16355 21 ft 24 kts 91°
2026-05-08 13:51 -29.99333 -51.16241 25 ft 17 kts 160°
2026-05-08 13:51 -29.99451 -51.16211 26 ft 17 kts 138°
2026-05-08 13:51 -29.99480 -51.16071 24 ft 21 kts 91°
2026-05-08 13:51 -29.99485 -51.15890 23 ft 25 kts 92°
2026-05-08 13:52 -29.99490 -51.15678 23 ft 28 kts 90°
2026-05-08 13:52 -29.99490 -51.15430 20 ft 33 kts 91°
2026-05-08 13:52 -29.99494 -51.15306 24 ft 8 kts 91°
2026-05-08 13:52 -29.99491 -51.15209 25 ft 16 kts 77°
2026-05-08 13:53 -29.99442 -51.15068 23 ft 21 kts 94°
2026-05-08 13:53 -29.99496 -51.15027 24 ft 11 kts 222°
2026-05-08 13:53 -29.99504 -51.15106 20 ft 10 kts 269°
2026-05-08 13:53 -29.99504 -51.15194 21 ft 16 kts 272°
2026-05-08 13:54 -29.99502 -51.15635 23 ft 93 kts 263°
2026-05-08 13:54 -29.99489 -51.16679 312 ft 146 kts 243°
2026-05-08 13:54 -30.00027 -51.17667 1120 ft 163 kts 219°
2026-05-08 13:54 -30.00634 -51.18855 1803 ft 183 kts 255°
2026-05-08 13:55 -30.00519 -51.20357 2865 ft 189 kts 269°
2026-05-08 13:55 -30.00402 -51.21379 3430 ft 192 kts 260°
2026-05-08 13:55 -30.00337 -51.24673 3911 ft 218 kts 263°
2026-05-08 13:56 -30.00640 -51.26349 4776 ft 215 kts 234°
2026-05-08 13:56 -30.01805 -51.27472 5423 ft 233 kts 194°
2026-05-08 13:56 -30.03475 -51.27654 5708 ft 253 kts 169°
2026-05-08 13:56 -30.05299 -51.27511 5614 ft 277 kts 172°
2026-05-08 13:57 -30.07248 -51.27453 5988 ft 279 kts 175°
2026-05-08 13:57 -30.09194 -51.27437 6463 ft 281 kts 175°
2026-05-08 13:57 -30.11154 -51.27428 6630 ft 282 kts 176°
2026-05-08 13:57 -30.13119 -51.27440 6467 ft 282 kts 176°
2026-05-08 13:58 -30.15085 -51.27477 6236 ft 282 kts 177°
2026-05-08 13:58 -30.17026 -51.27756 5959 ft 280 kts 192°
2026-05-08 13:58 -30.18794 -51.28548 5974 ft 265 kts 208°
2026-05-08 13:58 -30.20227 -51.29772 6454 ft 252 kts 221°
2026-05-08 13:59 -30.21472 -51.31141 7058 ft 245 kts 220°
2026-05-08 13:59 -30.22743 -51.32485 7410 ft 250 kts 219°
2026-05-08 13:59 -30.24059 -51.33831 7786 ft 254 kts 218°
2026-05-08 13:59 -30.25407 -51.35177 8186 ft 257 kts 217°
2026-05-08 14:00 -30.26776 -51.36523 8573 ft 259 kts 217°
2026-05-08 14:00 -30.28158 -51.37874 9011 ft 260 kts 217°
2026-05-08 14:00 -30.29551 -51.39224 9407 ft 262 kts 217°
2026-05-08 14:00 -30.30950 -51.40577 9813 ft 263 kts 217°
2026-05-08 14:01 -30.32357 -51.41939 10168 ft 264 kts 217°
2026-05-08 14:01 -30.33768 -51.43303 10526 ft 265 kts 217°
2026-05-08 14:01 -30.35187 -51.44675 10858 ft 266 kts 217°
2026-05-08 14:01 -30.36614 -51.46057 11204 ft 267 kts 217°
2026-05-08 14:02 -30.38042 -51.47440 11568 ft 268 kts 218°
2026-05-08 14:02 -30.39458 -51.48810 11903 ft 269 kts 218°
2026-05-08 14:02 -30.40898 -51.50204 12246 ft 270 kts 218°
2026-05-08 14:02 -30.42346 -51.51606 12593 ft 272 kts 218°
2026-05-08 14:03 -30.43798 -51.53014 12939 ft 273 kts 218°
2026-05-08 14:03 -30.45257 -51.54429 13280 ft 274 kts 218°
2026-05-08 14:03 -30.46727 -51.55854 13579 ft 275 kts 218°
2026-05-08 14:03 -30.48201 -51.57278 13868 ft 277 kts 218°
2026-05-08 14:04 -30.49669 -51.58729 14151 ft 276 kts 220°
2026-05-08 14:04 -30.51109 -51.60192 14497 ft 274 kts 220°
2026-05-08 14:04 -30.52525 -51.61666 14790 ft 273 kts 222°
2026-05-08 14:04 -30.53919 -51.63175 15029 ft 274 kts 223°
2026-05-08 14:05 -30.55284 -51.64691 15227 ft 277 kts 223°
2026-05-08 14:05 -30.56676 -51.66251 15452 ft 279 kts 223°
2026-05-08 14:05 -30.58071 -51.67825 15704 ft 280 kts 224°
2026-05-08 14:05 -30.59459 -51.69406 16008 ft 280 kts 225°
2026-05-08 14:06 -30.60828 -51.71020 16219 ft 280 kts 226°
2026-05-08 14:06 -30.62084 -51.72744 16294 ft 279 kts 233°
2026-05-08 14:06 -30.63097 -51.74653 16323 ft 277 kts 242°
2026-05-08 14:06 -30.63787 -51.76718 16425 ft 271 kts 252°
2026-05-08 14:07 -30.64046 -51.78851 16572 ft 264 kts 265°
2026-05-08 14:07 -30.63781 -51.80935 16735 ft 260 kts 280°
2026-05-08 14:07 -30.62926 -51.82783 16714 ft 265 kts 297°
2026-05-08 14:07 -30.61452 -51.84149 16531 ft 285 kts 318°
2026-05-08 14:08 -30.59439 -51.84667 16006 ft 324 kts 344°
2026-05-08 14:08 -30.57091 -51.83817 14586 ft 386 kts 23°
2026-05-08 14:08 -30.55213 -51.81744 8255 ft 323 kts 37°
2026-05-08 14:08 -30.54472 -51.81207 3786 ft 371 kts 12°